period_start,C,m1,H,J0,J1,J2,J3,J4,J5,JA,JB,JC,JD,JJ,JK,JN,#
2014-10-22 00:01:10,0.03,0.35,0.00,23.36,27.60,30.34,4.75,27.36,1008.05,2035.11,3264.51,3256.03,3477.96,350.24,344.47,19.24,0000 0000 0000 0000 000000
2014-10-22 00:06:12,0.02,0.35,0.00,23.36,27.60,30.35,4.80,27.40,1008.03,2035.11,3263.99,3256.00,3477.36,350.27,344.61,19.27,0000 0000 0000 0000 000000
2014-10-22 00:11:13,0.03,0.35,0.00,23.40,27.60,30.35,4.77,27.38,1007.91,2035.06,3263.39,3255.96,3476.96,350.42,344.58,19.30,0000 0000 0000 0000 000000
2014-10-22 00:16:15,0.03,0.36,0.00,23.41,27.60,30.35,4.71,27.18,1008.15,2035.08,3262.99,3255.71,3476.37,349.92,344.12,19.33,0000 0000 0000 0000 000000
2014-10-22 00:21:16,0.04,0.36,0.00,23.43,27.60,30.32,4.73,27.64,1008.07,2035.05,3262.50,3255.22,3476.01,349.85,344.19,19.36,0000 0000 0000 0000 000000
2014-10-22 00:26:17,0.02,0.36,0.00,23.45,27.62,30.30,4.75,27.39,1008.13,2035.04,3261.93,3255.01,3475.79,350.06,344.61,19.39,0000 0000 0000 0000 000000
2014-10-22 00:31:18,0.04,0.36,0.00,23.47,27.62,30.29,4.73,27.38,1007.98,2035.07,3261.10,3254.99,3475.06,349.79,343.94,19.42,0000 0000 0000 0000 000000
2014-10-22 00:36:20,0.02,0.36,0.00,23.45,27.62,30.27,4.74,27.43,1007.88,2035.05,3260.70,3254.79,3474.88,349.67,343.63,19.45,0000 0000 0000 0000 000000
2014-10-22 00:41:21,0.07,0.36,0.00,23.42,27.62,30.31,4.72,27.21,1008.07,2035.09,3260.02,3254.17,3474.11,349.77,344.06,19.48,0000 0000 0000 0000 000000
2014-10-22 00:46:22,0.03,0.36,0.00,23.44,27.62,30.34,4.69,27.30,1008.12,2035.36,3259.93,3254.28,3474.01,349.37,343.67,19.51,0000 0000 0000 0000 000000
2014-10-22 00:51:23,0.01,0.36,0.00,23.46,27.62,30.33,4.75,27.43,1007.97,2035.20,3259.26,3254.06,3473.95,350.10,344.21,19.54,0000 0000 0000 0000 000000
2014-10-22 00:56:25,0.02,0.36,0.00,23.44,27.62,30.30,4.76,27.41,1008.07,2035.11,3258.92,3254.00,3473.23,349.79,343.74,19.57,0000 0000 0000 0000 000000
2014-10-22 01:01:26,0.01,0.36,0.00,23.37,27.62,30.35,4.71,27.23,1008.04,2035.05,3258.15,3254.00,3473.00,349.58,343.94,19.60,0000 0000 0000 0000 000000
2014-10-22 01:06:27,0.01,0.36,0.00,23.37,27.62,30.39,4.86,27.38,1007.87,2035.06,3257.97,3253.98,3472.84,350.49,344.77,19.62,0000 0000 0000 0000 000000
2014-10-22 01:11:28,0.03,0.37,0.00,23.42,27.63,30.40,4.72,27.34,1007.87,2035.02,3257.25,3253.95,3472.13,350.06,344.23,19.65,0000 0000 0000 0000 000000
2014-10-22 01:16:29,0.02,0.37,0.00,23.42,27.64,30.38,4.72,27.36,1007.86,2035.03,3256.94,3253.77,3471.99,350.28,344.18,19.68,0000 0000 0000 0000 000000
2014-10-22 01:21:31,0.06,0.37,0.00,23.42,27.65,30.41,4.75,27.44,1007.84,2035.03,3256.17,3253.23,3471.67,350.25,344.52,19.71,0000 0000 0000 0000 000000
2014-10-22 01:26:32,0.03,0.37,0.00,23.43,27.65,30.38,4.78,27.48,1007.86,2035.01,3255.60,3253.01,3471.02,350.16,344.16,19.74,0000 0000 0000 0000 000000
2014-10-22 01:31:34,0.00,0.37,0.00,23.39,27.65,30.38,4.74,27.40,1007.86,2035.02,3254.96,3253.00,3470.98,350.29,344.51,19.77,0000 0000 0000 0000 000000
2014-10-22 01:36:35,0.05,0.37,0.00,23.37,27.65,30.38,4.75,27.44,1007.84,2035.02,3254.13,3252.99,3470.32,349.97,343.92,19.80,0000 0000 0000 0000 000000
2014-10-22 01:41:36,0.03,0.37,0.00,23.40,27.65,30.41,4.74,27.38,1007.83,2035.01,3253.34,3252.95,3469.98,350.29,344.53,19.83,0000 0000 0000 0000 000000
2014-10-22 01:46:38,0.03,0.37,0.00,23.43,27.65,30.40,4.72,27.43,1007.83,2035.05,3252.89,3252.91,3469.64,350.08,344.47,19.86,0000 0000 0000 0000 000000
2014-10-22 01:51:39,0.06,0.37,0.00,23.38,27.65,30.41,4.72,27.36,1007.83,2035.01,3252.05,3252.26,3469.02,350.42,344.47,19.89,0000 0000 0000 0000 000000
2014-10-22 01:56:40,0.04,0.37,0.00,23.35,27.65,30.44,4.79,27.32,1007.83,2035.01,3251.32,3252.05,3468.60,350.41,344.69,19.92,0000 0000 0000 0000 000000
2014-10-22 02:01:42,0.02,0.38,0.00,23.38,27.65,30.43,4.73,27.19,1007.79,2035.02,3250.80,3252.01,3468.02,350.05,344.34,19.95,0000 0000 0000 0000 000000
2014-10-22 02:06:43,0.02,0.38,0.00,23.38,27.66,30.44,4.75,27.23,1007.78,2035.03,3250.04,3252.00,3467.95,350.03,344.24,19.98,0000 0000 0000 0000 000000
2014-10-22 02:11:44,0.04,0.38,0.00,23.39,27.67,30.42,4.80,27.33,1007.83,2035.01,3249.51,3252.00,3467.20,350.07,344.26,20.00,0000 0000 0000 0000 000000
2014-10-22 02:16:45,0.01,0.38,0.00,23.38,27.67,30.43,4.78,27.29,1007.83,2035.03,3248.92,3251.96,3466.98,349.98,344.24,20.03,0000 0000 0000 0000 000000
2014-10-22 02:21:46,0.06,0.38,0.00,23.38,27.67,30.43,4.78,27.42,1007.83,2035.00,3248.08,3251.57,3466.33,350.28,344.51,20.06,0000 0000 0000 0000 000000
2014-10-22 02:26:47,0.04,0.38,0.00,23.37,27.67,30.41,4.79,27.27,1007.83,2035.00,3247.37,3251.05,3465.99,349.84,343.84,20.09,0000 0000 0000 0000 000000
2014-10-22 02:31:48,0.03,0.38,0.00,23.32,27.67,30.43,4.74,27.20,1007.84,2035.01,3246.69,3251.01,3465.51,350.29,344.62,20.12,0000 0000 0000 0000 000000
2014-10-22 02:36:50,0.03,0.38,0.00,23.33,27.67,30.46,4.82,27.41,1007.84,2035.00,3245.74,3250.97,3464.96,350.38,344.38,20.15,0000 0000 0000 0000 000000
2014-10-22 02:41:51,0.05,0.39,0.00,23.37,27.67,30.45,4.71,27.32,1007.83,2035.00,3244.97,3250.67,3464.17,349.59,343.78,20.18,0000 0000 0000 0000 000000
2014-10-22 02:46:52,0.05,0.39,0.00,23.35,27.68,30.45,4.77,27.22,1007.83,2035.01,3244.20,3250.32,3463.98,350.44,344.70,20.21,0000 0000 0000 0000 000000
2014-10-22 02:51:54,0.05,0.39,0.00,23.31,27.68,30.46,4.72,27.16,1007.83,2035.02,3243.45,3250.03,3463.30,350.61,344.82,20.24,0000 0000 0000 0000 000000
2014-10-22 02:56:55,0.02,0.39,0.00,23.34,27.69,30.47,4.74,27.43,1007.83,2035.03,3242.79,3250.00,3463.00,350.10,344.54,20.27,0000 0000 0000 0000 000000
2014-10-22 03:01:56,0.03,0.39,0.00,23.38,27.70,30.47,4.74,27.29,1007.83,2035.02,3242.04,3249.97,3462.46,350.11,344.34,20.30,0000 0000 0000 0000 000000
2014-10-22 03:06:57,0.05,0.39,0.00,23.40,27.70,30.48,4.75,27.40,1007.82,2035.01,3241.35,3249.43,3461.99,350.24,344.46,20.33,0000 0000 0000 0000 000000
2014-10-22 03:11:58,0.03,0.39,0.00,23.37,27.70,30.46,4.72,27.22,1007.83,2035.00,3240.95,3249.15,3461.29,350.20,344.33,20.36,0000 0000 0000 0000 000000
2014-10-22 03:17:00,0.02,0.39,0.00,23.34,27.70,30.47,4.71,27.24,1007.83,2035.01,3240.16,3249.01,3461.00,349.25,343.69,20.39,0000 0000 0000 0000 000000
2014-10-22 03:22:01,0.02,0.39,0.00,23.36,27.70,30.45,4.76,27.27,1007.81,2035.00,3239.78,3249.00,3460.64,349.68,343.94,20.41,0000 0000 0000 0000 000000
2014-10-22 03:27:02,0.03,0.40,0.00,23.36,27.70,30.48,4.74,27.38,1007.79,2035.02,3239.03,3248.99,3460.03,349.72,343.94,20.44,0000 0000 0000 0000 000000
2014-10-22 03:32:03,0.02,0.40,0.00,23.33,27.70,30.47,4.71,27.43,1007.60,2035.02,3238.58,3248.97,3459.91,349.98,344.29,20.47,0000 0000 0000 0000 000000
2014-10-22 03:37:05,0.05,0.40,0.00,23.34,27.69,30.46,4.79,27.39,1007.72,2035.02,3237.81,3248.67,3459.12,350.39,344.69,20.50,0000 0000 0000 0000 000000
2014-10-22 03:42:06,0.03,0.40,0.00,23.38,27.68,30.45,4.72,27.40,1007.53,2035.00,3237.04,3248.18,3458.99,350.10,344.22,20.53,0000 0000 0000 0000 000000
2014-10-22 03:47:08,0.03,0.40,0.00,23.34,27.67,30.47,4.72,27.34,1007.45,2035.02,3236.86,3248.14,3458.61,349.80,344.04,20.56,0000 0000 0000 0000 000000
2014-10-22 03:52:09,0.03,0.40,0.00,23.34,27.67,30.46,4.76,27.30,1007.49,2035.03,3236.13,3248.10,3458.06,350.32,344.45,20.59,0000 0000 0000 0000 000000
2014-10-22 03:57:10,0.01,0.40,0.00,23.38,27.67,30.45,4.76,27.36,1007.45,2035.01,3235.80,3248.02,3458.00,350.08,344.41,20.62,0000 0000 0000 0000 000000
2014-10-22 04:02:11,0.04,0.40,0.00,23.33,27.67,30.46,4.70,27.53,1007.40,2035.03,3235.05,3248.00,3457.57,349.40,343.63,20.65,0000 0000 0000 0000 000000
2014-10-22 04:07:13,0.02,0.40,0.00,23.31,27.67,30.46,4.72,27.29,1007.46,2035.03,3234.63,3248.00,3457.03,350.02,344.18,20.68,0000 0000 0000 0000 000000
2014-10-22 04:12:14,0.01,0.40,0.00,23.37,27.67,30.46,4.83,27.46,1007.54,2035.02,3234.02,3247.99,3456.96,350.65,344.67,20.71,0000 0000 0000 0000 000000
2014-10-22 04:17:16,0.04,0.40,0.00,23.37,27.67,30.46,4.75,27.37,1007.51,2035.01,3233.47,3247.95,3456.16,349.91,344.02,20.74,0000 0000 0000 0000 000000
2014-10-22 04:22:17,0.01,0.40,0.00,23.33,27.67,30.42,4.71,27.32,1007.41,2035.03,3233.00,3247.97,3456.00,349.63,343.83,20.77,0000 0000 0000 0000 000000
2014-10-22 04:27:18,0.04,0.41,0.00,23.32,27.66,30.44,4.77,27.36,1007.37,2035.01,3232.38,3247.82,3455.84,350.19,344.28,20.80,0000 0000 0000 0000 000000
2014-10-22 04:32:19,0.05,0.41,0.00,23.36,27.66,30.46,4.75,27.28,1007.38,2035.01,3231.80,3247.29,3455.10,350.62,344.38,20.82,0000 0000 0000 0000 000000
2014-10-22 04:37:20,0.05,0.41,0.00,23.37,27.66,30.45,4.75,27.53,1007.41,2035.00,3230.76,3247.04,3454.75,350.02,344.22,20.85,0000 0000 0000 0000 000000
2014-10-22 04:42:22,0.02,0.41,0.00,23.31,27.65,30.44,4.78,27.29,1007.60,2035.01,3229.92,3247.00,3454.04,350.55,344.53,20.88,0000 0000 0000 0000 000000
2014-10-22 04:47:23,0.03,0.41,0.00,23.31,27.65,30.44,4.80,27.47,1007.67,2035.02,3229.06,3246.99,3453.88,349.74,344.06,20.91,0000 0000 0000 0000 000000
2014-10-22 04:52:24,0.04,0.41,0.00,23.38,27.65,30.43,4.68,27.40,1007.73,2035.02,3228.19,3246.94,3453.11,349.43,343.63,20.94,0000 0000 0000 0000 000000
2014-10-22 04:57:26,0.03,0.41,0.00,23.35,27.65,30.43,4.70,27.29,1007.75,2035.03,3227.58,3246.72,3452.95,349.61,343.89,20.97,0000 0000 0000 0000 000000
2014-10-22 05:02:27,0.05,0.41,0.00,23.32,27.65,30.41,4.75,27.36,1007.79,2035.03,3226.99,3246.18,3452.21,349.75,343.95,21.00,0000 0000 0000 0000 000000
2014-10-22 05:07:28,0.03,0.42,0.00,23.33,27.65,30.43,4.74,27.37,1007.80,2035.02,3226.21,3246.03,3451.98,350.28,344.60,21.03,0000 0000 0000 0000 000000
2014-10-22 05:12:29,0.04,0.42,0.00,23.39,27.65,30.44,4.72,27.29,1007.82,2035.03,3225.54,3246.00,3451.35,350.36,344.62,21.06,0000 0000 0000 0000 000000
2014-10-22 05:17:30,0.01,0.42,0.00,23.35,27.65,30.43,4.71,27.18,1007.82,2035.05,3224.98,3246.00,3451.00,349.65,343.99,21.09,0000 0000 0000 0000 000000
2014-10-22 05:22:31,0.04,0.42,0.00,23.32,27.65,30.43,4.79,27.29,1007.83,2035.05,3224.18,3245.97,3450.59,350.90,345.19,21.12,0000 0000 0000 0000 000000
2014-10-22 05:27:33,0.03,0.42,0.00,23.34,27.65,30.43,4.77,27.27,1007.83,2035.05,3223.81,3245.59,3450.02,349.81,344.14,21.15,0000 0000 0000 0000 000000
2014-10-22 05:32:34,0.04,0.42,0.00,23.39,27.64,30.42,4.75,27.20,1007.83,2035.03,3223.04,3245.07,3449.67,349.71,343.87,21.18,0000 0000 0000 0000 000000
2014-10-22 05:37:35,0.03,0.42,0.00,23.35,27.64,30.41,4.78,27.51,1007.83,2035.02,3222.37,3245.01,3449.04,349.48,343.87,21.21,0000 0000 0000 0000 000000
2014-10-22 05:42:37,0.01,0.42,0.00,23.32,27.63,30.40,4.73,27.22,1007.83,2035.01,3221.88,3245.00,3448.82,349.81,344.07,21.23,0000 0000 0000 0000 000000
2014-10-22 05:47:38,0.04,0.42,0.00,23.36,27.62,30.40,4.77,27.41,1007.83,2035.02,3221.12,3244.98,3448.09,350.17,344.49,21.26,0000 0000 0000 0000 000000
2014-10-22 05:52:39,0.02,0.42,0.00,23.39,27.62,30.42,4.76,27.28,1007.83,2035.02,3220.49,3244.90,3447.98,349.91,344.33,21.29,0000 0000 0000 0000 000000
2014-10-22 05:57:41,0.06,0.43,0.00,23.38,27.62,30.40,4.75,27.18,1007.83,2035.04,3219.78,3244.51,3447.39,350.02,344.35,21.32,0000 0000 0000 0000 000000
2014-10-22 06:02:42,0.03,0.43,0.00,23.35,27.62,30.40,4.78,27.24,1007.83,2035.05,3219.04,3244.05,3447.00,350.81,344.86,21.35,0000 0000 0000 0000 000000
2014-10-22 06:07:43,0.01,0.43,0.00,23.36,27.62,30.41,4.72,27.20,1007.83,2035.06,3218.99,3244.02,3446.94,350.20,344.43,21.38,0000 0000 0000 0000 000000
2014-10-22 06:12:44,0.04,0.43,0.00,23.39,27.62,30.42,4.75,27.29,1007.83,2035.04,3218.22,3244.00,3446.20,350.43,344.71,21.41,0000 0000 0000 0000 000000
2014-10-22 06:17:45,0.02,0.43,0.00,23.35,27.62,30.41,4.69,27.21,1007.83,2035.03,3217.67,3243.98,3445.98,349.69,343.92,21.44,0000 0000 0000 0000 000000
2014-10-22 06:22:46,0.04,0.43,0.00,23.32,27.62,30.40,4.69,27.14,1007.83,2035.06,3217.02,3243.86,3445.58,349.56,343.70,21.47,0000 0000 0000 0000 000000
2014-10-22 06:27:47,0.05,0.43,0.00,23.32,27.62,30.38,4.75,27.13,1007.83,2035.09,3216.61,3243.44,3445.06,349.79,344.07,21.50,0000 0000 0000 0000 000000
2014-10-22 06:32:49,0.01,0.43,0.00,23.35,27.62,30.37,4.76,27.07,1007.82,2035.08,3216.01,3243.05,3444.98,350.19,344.43,21.53,0000 0000 0000 0000 000000
2014-10-22 06:37:50,0.04,0.43,0.00,23.34,27.60,30.37,4.72,27.44,1007.81,2035.10,3215.57,3243.00,3444.47,350.05,344.30,21.56,0000 0000 0000 0000 000000
2014-10-22 06:42:51,0.02,0.44,0.00,23.31,27.60,30.36,4.73,27.21,1007.80,2035.08,3215.01,3243.00,3444.01,350.20,344.40,21.59,0000 0000 0000 0000 000000
2014-10-22 06:47:52,0.00,0.44,0.00,23.36,27.60,30.39,4.77,27.30,1007.82,2035.07,3214.82,3242.99,3443.94,350.03,344.25,21.61,0000 0000 0000 0000 000000
2014-10-22 06:52:53,0.05,0.44,0.00,23.39,27.60,30.36,4.78,27.45,1007.83,2035.10,3214.07,3242.89,3443.27,349.79,344.01,21.64,0000 0000 0000 0000 000000
2014-10-22 06:57:55,0.03,0.44,0.00,23.38,27.60,30.37,4.69,27.25,1007.83,2035.08,3213.74,3242.50,3443.00,350.28,344.37,21.67,0000 0000 0000 0000 000000
2014-10-22 07:02:56,0.04,0.44,0.00,23.36,27.60,30.37,4.73,27.13,1007.83,2035.10,3213.03,3242.13,3442.89,350.34,344.73,21.70,0000 0000 0000 0000 000000
2014-10-22 07:07:57,0.03,0.44,0.00,23.35,27.60,30.36,4.72,27.31,1007.83,2035.09,3212.71,3242.02,3442.14,350.02,344.48,21.73,0000 0000 0000 0000 000000
2014-10-22 07:12:59,0.02,0.44,0.00,23.36,27.60,30.36,4.73,27.36,1007.85,2035.12,3212.03,3242.00,3442.00,349.77,343.90,21.76,0000 0000 0000 0000 000000
2014-10-22 07:18:00,0.03,0.44,0.00,23.37,27.59,30.36,4.69,27.31,1007.85,2035.07,3211.39,3241.99,3441.58,349.23,343.60,21.79,0000 0000 0000 0000 000000
2014-10-22 07:23:01,0.03,0.44,0.00,23.35,27.58,30.36,4.70,27.18,1007.84,2035.13,3210.88,3241.91,3441.03,350.24,344.39,21.82,0000 0000 0000 0000 000000
2014-10-22 07:28:03,0.05,0.44,0.00,23.32,27.57,30.35,4.78,27.19,1007.84,2035.16,3210.09,3241.41,3440.94,349.87,344.34,21.85,0000 0000 0000 0000 000000
2014-10-22 07:33:04,0.05,0.44,0.00,23.38,27.57,30.36,4.71,27.31,1007.83,2035.20,3209.66,3241.05,3440.28,349.97,344.32,21.88,0000 0000 0000 0000 000000
2014-10-22 07:38:05,0.02,0.45,0.00,23.40,27.57,30.36,4.76,27.46,1007.83,2035.27,3209.02,3241.01,3440.01,349.96,344.18,21.91,0000 0000 0000 0000 000000
2014-10-22 07:43:06,0.04,0.45,0.00,23.42,27.57,30.35,4.75,27.23,1007.85,2035.32,3208.72,3241.00,3439.96,350.49,344.68,21.94,0000 0000 0000 0000 000000
2014-10-22 07:48:07,0.01,0.45,0.00,23.44,27.57,30.35,4.71,27.33,1007.85,2035.23,3208.02,3240.99,3439.23,349.56,343.74,21.97,0000 0000 0000 0000 000000
2014-10-22 07:53:08,0.03,0.45,0.00,23.45,27.57,30.34,4.72,27.32,1007.84,2035.24,3207.51,3240.94,3439.00,349.65,343.66,22.00,0000 0000 0000 0000 000000
2014-10-22 07:58:10,0.06,0.45,0.00,23.45,27.57,30.34,4.73,27.32,1007.85,2035.39,3207.00,3240.75,3438.88,349.75,343.81,22.02,0000 0000 0000 0000 000000
2014-10-22 08:03:11,0.05,0.45,0.00,23.43,27.57,30.34,4.77,27.27,1007.99,2035.34,3206.35,3240.13,3438.14,350.37,344.59,22.05,0000 0000 0000 0000 000000
2014-10-22 08:08:12,0.03,0.45,0.00,23.45,27.57,30.33,4.81,27.46,1008.09,2035.53,3206.01,3240.05,3438.01,350.20,344.63,22.08,0000 0000 0000 0000 000000
2014-10-22 08:13:14,0.03,0.45,0.00,23.47,27.57,30.33,4.71,27.45,1008.16,2035.61,3205.67,3240.01,3437.98,349.94,344.13,22.11,0000 0000 0000 0000 000000
2014-10-22 08:18:15,0.04,0.45,0.00,23.47,27.56,30.33,4.76,27.34,1008.25,2035.65,3205.02,3240.00,3437.50,349.88,344.12,22.14,0000 0000 0000 0000 000000
2014-10-22 08:23:16,0.05,0.46,0.00,23.47,27.55,30.32,4.71,27.27,1008.29,2035.86,3204.60,3240.00,3437.04,350.27,344.56,22.17,0000 0000 0000 0000 000000
2014-10-22 08:28:17,0.01,0.46,0.00,23.46,27.55,30.32,4.74,27.48,1008.30,2035.86,3204.02,3239.98,3436.99,350.24,344.67,22.20,0000 0000 0000 0000 000000
2014-10-22 08:33:18,0.03,0.46,0.00,23.47,27.55,30.29,4.78,27.36,1008.30,2035.96,3203.76,3239.97,3436.84,349.84,344.10,22.23,0000 0000 0000 0000 000000
2014-10-22 08:38:20,0.04,0.46,0.00,23.47,27.55,30.30,4.81,27.57,1008.30,2035.95,3203.03,3239.81,3436.10,350.51,344.68,22.26,0000 0000 0000 0000 000000
2014-10-22 08:43:21,0.02,0.46,0.00,23.49,27.53,30.29,4.76,27.35,1008.30,2035.95,3202.72,3239.44,3436.00,350.19,344.56,22.29,0000 0000 0000 0000 000000
2014-10-22 08:48:22,0.04,0.46,0.00,23.48,27.52,30.27,4.68,27.31,1008.31,2035.96,3202.03,3239.12,3435.86,350.27,344.70,22.32,0000 0000 0000 0000 000000
2014-10-22 08:53:24,0.04,0.46,0.00,23.48,27.52,30.26,4.72,27.27,1008.31,2035.97,3201.50,3239.01,3435.13,349.41,343.61,22.35,0000 0000 0000 0000 000000
2014-10-22 08:58:25,0.01,0.46,0.00,23.45,27.52,30.25,4.72,27.39,1008.31,2035.97,3201.00,3239.00,3435.00,349.61,344.18,22.38,0000 0000 0000 0000 000000
2014-10-22 09:03:26,0.03,0.46,0.00,23.40,27.51,30.24,4.76,27.32,1008.31,2035.98,3200.47,3238.97,3434.72,350.21,344.63,22.41,0000 0000 0000 0000 000000
2014-10-22 09:08:27,0.03,0.46,0.00,23.38,27.50,30.23,4.74,27.42,1008.31,2035.96,3199.96,3238.75,3434.06,350.47,344.82,22.44,0000 0000 0000 0000 000000
2014-10-22 09:13:28,0.05,0.47,0.00,23.41,27.50,30.23,4.69,27.42,1008.32,2035.98,3199.31,3238.19,3433.99,350.08,344.55,22.46,0000 0000 0000 0000 000000
2014-10-22 09:18:30,0.01,0.47,0.00,23.40,27.50,30.23,4.80,27.32,1008.32,2035.97,3199.00,3238.02,3433.77,350.28,344.53,22.49,0000 0000 0000 0000 000000
2014-10-22 09:23:31,0.03,0.47,0.00,23.37,27.50,30.24,4.76,27.36,1008.32,2035.99,3198.74,3238.01,3433.20,350.30,344.52,22.52,0000 0000 0000 0000 000000
2014-10-22 09:28:32,0.02,0.47,0.00,23.37,27.49,30.24,4.76,27.37,1008.32,2035.99,3198.04,3238.00,3433.00,349.77,344.11,22.55,0000 0000 0000 0000 000000
2014-10-22 09:33:34,0.01,0.47,0.00,23.41,27.48,30.24,4.73,27.33,1008.32,2035.99,3197.90,3237.99,3432.95,349.22,343.69,22.58,0000 0000 0000 0000 000000
2014-10-22 09:38:35,0.04,0.47,0.00,23.40,27.47,30.23,4.73,27.68,1008.32,2035.98,3197.16,3237.87,3432.31,349.77,344.25,22.61,0000 0000 0000 0000 000000
2014-10-22 09:43:36,0.04,0.47,0.00,23.38,27.47,30.22,4.73,27.40,1008.32,2035.98,3196.83,3237.31,3432.00,349.88,344.19,22.64,0000 0000 0000 0000 000000
2014-10-22 09:48:38,0.03,0.47,0.00,23.38,27.47,30.22,4.74,27.31,1008.32,2035.99,3196.10,3237.08,3431.98,350.47,344.84,22.67,0000 0000 0000 0000 000000
2014-10-22 09:53:39,0.03,0.47,0.00,23.40,27.47,30.25,4.73,27.45,1008.31,2035.98,3195.81,3237.00,3431.26,349.22,343.50,22.70,0000 0000 0000 0000 000000
2014-10-22 09:58:40,0.01,0.47,0.00,23.37,27.47,30.22,4.69,27.30,1008.32,2035.98,3195.07,3237.00,3431.00,349.15,343.48,22.73,0000 0000 0000 0000 000000
2014-10-22 10:03:41,0.00,0.47,0.00,23.37,27.47,30.21,4.74,27.34,1008.32,2035.99,3195.00,3236.99,3430.99,350.43,345.04,22.76,0000 0000 0000 0000 000000
2014-10-22 10:08:42,0.01,0.47,0.00,23.38,27.47,30.22,4.71,27.48,1008.32,2035.99,3194.80,3236.98,3430.86,349.65,344.02,22.79,0000 0000 0000 0000 000000
2014-10-22 10:13:43,0.04,0.47,0.00,23.40,27.47,30.20,4.73,27.48,1008.33,2035.98,3194.06,3236.96,3430.20,349.57,344.09,22.82,0000 0000 0000 0000 000000
2014-10-22 10:18:44,0.04,0.48,0.00,23.38,27.46,30.21,4.77,27.41,1008.32,2035.99,3193.58,3236.61,3430.00,350.36,344.75,22.84,0000 0000 0000 0000 000000
2014-10-22 10:23:45,0.02,0.48,0.00,23.37,27.45,30.21,4.80,27.31,1008.32,2035.98,3193.00,3236.14,3429.92,350.49,344.88,22.87,0000 0000 0000 0000 000000
2014-10-22 10:28:46,0.04,0.48,0.00,23.36,27.45,30.22,4.81,27.40,1008.33,2035.99,3192.64,3236.07,3429.38,350.36,344.79,22.90,0000 0000 0000 0000 000000
2014-10-22 10:33:47,0.01,0.48,0.00,23.41,27.45,30.23,4.70,27.29,1008.34,2035.99,3192.03,3236.00,3429.01,350.19,344.68,22.93,0000 0000 0000 0000 000000
2014-10-22 10:38:49,0.02,0.48,0.00,23.39,27.45,30.22,4.68,27.53,1008.34,2035.97,3191.53,3235.98,3428.86,349.44,343.91,22.96,0000 0000 0000 0000 000000
2014-10-22 10:43:50,0.02,0.48,0.00,23.37,27.45,30.21,4.68,27.35,1008.34,2035.98,3191.02,3235.96,3428.25,350.22,344.48,22.99,0000 0000 0000 0000 000000
2014-10-22 10:48:51,0.01,0.48,0.00,23.37,27.45,30.22,4.73,27.29,1008.34,2035.99,3190.97,3235.86,3428.03,349.81,344.19,23.02,0000 0000 0000 0000 000000
2014-10-22 10:53:53,0.04,0.48,0.00,23.37,27.45,30.21,4.74,27.26,1008.35,2035.98,3190.22,3235.48,3428.00,350.20,344.54,23.05,0000 0000 0000 0000 000000
2014-10-22 10:58:54,0.03,0.48,0.00,23.35,27.45,30.20,4.78,27.38,1008.36,2035.98,3189.95,3235.13,3427.70,350.14,344.48,23.08,0000 0000 0000 0000 000000
2014-10-22 11:03:56,0.04,0.48,0.00,23.33,27.45,30.22,4.76,27.37,1008.36,2035.99,3189.21,3235.01,3427.06,350.36,344.80,23.11,0000 0000 0000 0000 000000
2014-10-22 11:08:57,0.01,0.48,0.00,23.38,27.45,30.22,4.80,27.43,1008.39,2035.99,3188.67,3234.99,3426.95,350.30,344.77,23.14,0000 0000 0000 0000 000000
2014-10-22 11:13:58,0.04,0.49,0.00,23.30,27.45,30.25,4.73,27.36,1008.45,2035.99,3188.02,3234.89,3426.27,350.17,344.68,23.17,0000 0000 0000 0000 000000
2014-10-22 11:19:00,0.05,0.49,0.00,23.25,27.45,30.23,4.79,27.55,1008.37,2035.99,3187.69,3234.18,3426.00,350.50,345.05,23.20,0000 0000 0000 0000 000000
2014-10-22 11:24:01,0.02,0.49,0.00,23.29,27.45,30.23,4.71,27.48,1008.40,2035.98,3187.03,3234.02,3425.68,350.10,344.64,23.23,0000 0000 0000 0000 000000
2014-10-22 11:29:02,0.03,0.49,0.00,23.32,27.45,30.22,4.69,27.34,1008.45,2035.98,3186.43,3234.00,3425.03,349.55,344.04,23.25,0000 0000 0000 0000 000000
2014-10-22 11:34:03,0.01,0.49,0.00,23.31,27.45,30.22,4.72,27.28,1008.46,2035.99,3185.92,3233.96,3424.98,349.93,344.59,23.28,0000 0000 0000 0000 000000
2014-10-22 11:39:05,0.07,0.49,0.00,23.36,27.45,30.22,4.80,27.73,1008.52,2035.99,3185.11,3233.56,3424.41,350.00,344.50,23.31,0000 0000 0000 0000 000000
2014-10-22 11:44:06,0.01,0.49,0.00,23.35,27.45,30.22,4.76,27.36,1008.64,2035.99,3184.94,3233.21,3424.02,349.82,344.38,23.34,0000 0000 0000 0000 000000
2014-10-22 11:49:07,0.03,0.49,0.00,23.32,27.45,30.22,4.76,27.29,1008.66,2035.98,3184.20,3233.06,3423.99,349.85,344.59,23.37,0000 0000 0000 0000 000000
2014-10-22 11:54:08,0.01,0.49,0.00,23.35,27.45,30.24,4.74,27.38,1008.60,2035.98,3184.00,3233.01,3423.77,350.10,344.72,23.40,0000 0000 0000 0000 000000
2014-10-22 11:59:10,0.02,0.49,0.00,23.33,27.45,30.22,4.75,27.33,1008.58,2035.97,3183.65,3233.00,3423.09,350.05,344.47,23.43,0000 0000 0000 0000 000000
2014-10-22 12:04:11,0.01,0.49,0.00,23.32,27.45,30.22,4.69,27.36,1008.45,2035.99,3183.02,3233.00,3423.00,349.56,344.36,23.46,0000 0000 0000 0000 000000
2014-10-22 12:09:12,0.00,0.49,0.00,23.34,27.45,30.21,4.72,27.26,1008.35,2035.99,3182.96,3232.96,3422.97,349.77,344.04,23.49,0000 0000 0000 0000 000000
2014-10-22 12:14:13,0.05,0.50,0.00,23.36,27.45,30.22,4.76,27.29,1008.32,2035.98,3182.31,3232.83,3422.39,349.92,344.24,23.52,0000 0000 0000 0000 000000
2014-10-22 12:19:14,0.03,0.50,0.00,23.30,27.45,30.22,4.70,27.19,1008.32,2035.98,3182.00,3232.22,3422.01,349.92,344.41,23.55,0000 0000 0000 0000 000000
2014-10-22 12:24:16,0.02,0.50,0.00,23.30,27.45,30.23,4.75,27.29,1008.32,2035.97,3181.63,3232.06,3421.99,350.32,344.91,23.58,0000 0000 0000 0000 000000
2014-10-22 12:29:17,0.01,0.50,0.00,23.34,27.45,30.21,4.77,27.27,1008.32,2035.98,3181.03,3232.03,3421.88,349.60,344.06,23.61,0000 0000 0000 0000 000000
2014-10-22 12:34:18,0.02,0.50,0.00,23.34,27.45,30.20,4.70,27.30,1008.32,2035.98,3180.88,3232.00,3421.21,349.59,343.84,23.64,0000 0000 0000 0000 000000
2014-10-22 12:39:19,0.02,0.50,0.00,23.34,27.45,30.21,4.72,27.48,1008.32,2035.98,3180.08,3231.98,3421.00,350.04,344.53,23.66,0000 0000 0000 0000 000000
2014-10-22 12:44:20,0.04,0.50,0.00,23.37,27.45,30.20,4.74,27.26,1008.32,2035.98,3179.73,3231.73,3420.82,349.94,344.33,23.69,0000 0000 0000 0000 000000
2014-10-22 12:49:22,0.05,0.50,0.00,23.37,27.45,30.20,4.77,27.25,1008.28,2035.99,3178.83,3231.07,3420.09,350.28,344.54,23.72,0000 0000 0000 0000 000000
2014-10-22 12:54:23,0.02,0.50,0.00,23.35,27.45,30.20,4.79,27.38,1008.26,2035.99,3178.05,3230.99,3419.99,349.91,344.51,23.75,0000 0000 0000 0000 000000
2014-10-22 12:59:24,0.00,0.50,0.00,23.37,27.45,30.19,4.80,27.31,1008.04,2035.98,3178.00,3230.98,3419.92,350.43,344.54,23.78,0000 0000 0000 0000 000000